Flag for Myanmar Weather past 2 weeks in Yangon, Myanmar

Now
77 °F

Light rain. Mostly cloudy.


Feels Like: 78 °F
Forecast: 76 / 81 °F
Wind: 3 mph from West

Location: Rangoon Airport

Current Time: Sep 5, 2015 at 7:23:24 PM

Latest Report: Sep 5, 2015 at 7:00 PM


Visibility: 3 mi

Pressure: 29.83 "Hg

Humidity: 100%

Dew point: 77 °F

Location of YangonLocation

Historic Weather in Yangon — Graph

°F

Yangon temperature yesterday

Maximum temperature yesterday: 82 °F (at 8:30 AM)
Minimum temperature yesterday: 77 °F (at 9:00 PM)
Average temperature yesterday: 79 °F

Past Weeks' High & Low Weather Summary

 TemperatureHumidityPressure
High93 °F (Aug 30, 1:30 PM)100% (Aug 21, 8:00 PM)29.92 "Hg (Aug 21, 8:00 PM)
Low75 °F (Aug 22, 5:00 PM)53% (Aug 30, 1:30 PM)29.62 "Hg (Aug 25, 3:30 PM)
Average80 °F91%29.78 "Hg
* Reported Aug 21 5:30 PM — Sep 5 6:00 PM, Yangon, Weather by CustomWeather, © 2015

Note: Actual official high and low records may vary slightly from our data, if they occured in-between our weather recording intervals... More about our weather records

Advertising

Yangon weather history for previous 24 hours

 ConditionsComfort  
Time TempWeatherWind HumidityBarometerVisibility
6:00 PM
Sat, Sep 5
77 °FLight rain. Mostly cloudy.5 mph100%29.80 "Hg3 mi
5:00 PM79 °FLight rain. Mostly cloudy.2 mph100%29.80 "Hg3 mi
4:30 PM79 °FRain. Mostly cloudy.5 mph100%29.80 "Hg2 mi
4:00 PM81 °FRain. Mostly cloudy.12 mph94%29.80 "Hg2 mi
3:30 PM86 °FMostly cloudy.7 mph70%29.77 "Hg4 mi
3:00 PM86 °FMostly cloudy.6 mph70%29.77 "Hg4 mi
2:00 PM86 °FPartly sunny.7 mph70%29.80 "Hg5 mi
1:30 PM86 °FPartly sunny.8 mph70%29.83 "Hg5 mi
1:00 PM86 °FPartly sunny.6 mph70%29.83 "Hg5 mi
12:30 PM86 °FPartly sunny.9 mph70%29.86 "Hg5 mi
11:00 AM84 °FPartly sunny.12 mph84%29.89 "Hg4 mi
10:30 AM82 °FPartly sunny.7 mph84%29.89 "Hg4 mi
10:00 AM82 °FMostly cloudy.9 mph84%29.89 "Hg4 mi
9:30 AM82 °FPartly sunny.8 mph84%29.89 "Hg5 mi
9:00 AM82 °FPartly sunny.9 mph84%29.89 "Hg5 mi
8:30 AM79 °FMostly cloudy.6 mph94%29.89 "Hg4 mi
8:00 AM79 °FMostly cloudy.6 mph94%29.89 "Hg4 mi
7:30 AM79 °FMostly cloudy.5 mph94%29.89 "Hg4 mi
7:00 AM79 °FMostly cloudy.6 mph94%29.86 "Hg4 mi
6:30 AM77 °FMostly cloudy.3 mph94%29.86 "Hg4 mi
6:00 AM77 °FMostly cloudy.5 mph94%29.86 "Hg4 mi
5:30 AM77 °FMostly cloudy.5 mph94%29.86 "Hg4 mi
5:00 AM77 °FMostly cloudy.3 mph94%29.86 "Hg4 mi
1:00 AM77 °FMostly cloudy.2 mph94%29.89 "Hg4 mi
12:30 AM77 °FMostly cloudy.2 mph94%29.89 "Hg4 mi
12:00 AM77 °FMostly cloudy.2 mph94%29.89 "Hg4 mi
11:30 PM
Fri, Sep 4
77 °FMostly cloudy.5 mph94%29.89 "Hg4 mi
11:00 PM77 °FMostly cloudy.6 mph94%29.89 "Hg4 mi
10:30 PM77 °FMostly cloudy.5 mph94%29.92 "Hg4 mi
10:00 PM77 °FMostly cloudy.6 mph94%29.92 "Hg4 mi
9:30 PM77 °FMostly cloudy.3 mph94%29.92 "Hg4 mi
9:00 PM77 °FMostly cloudy.3 mph100%29.92 "Hg4 mi
8:00 PM79 °FDrizzle. Mostly cloudy.3 mph100%29.89 "Hg4 mi
7:30 PM79 °FDrizzle. Mostly cloudy.7 mph100%29.86 "Hg4 mi
7:00 PM79 °FLight rain. Mostly cloudy.6 mph100%29.86 "Hg3 mi
Weather by CustomWeather, © 2015

See weather overviewHow to use our weather pages